Kars, Turkey

7:38 PM +03 on September 25, 2017 (GMT +0300)
Kars

Weather History for LTCF - July, 2014

Change the Weather History Date:

Tuesday, July 22, 2014

  Actual Average Record
Temperature  
Mean Temperature 65 °F -  
Max Temperature 76 °F 78 °F - ()
Min Temperature 53 °F 49 °F - ()
Growing Degree Days 15 (Base 50)    
Moisture  
Dew Point 50 °F    
Average Humidity 65    
Maximum Humidity 100    
Minimum Humidity 26    
Precipitation  
Precipitation 0.00 in 0.05 in - ()
Sea Level Pressure  
Sea Level Pressure 30.05 in    
Wind  
Wind Speed 5 mph ()    
Max Wind Speed 15 mph    
Max Gust Speed -    
Visibility 6.1 miles    
Events Rain    
T = Trace of Precipitation, MM = Missing Value Source: Averaged Metar Reports

Daily Weather History Graph

Daily Weather History Graph

Search for Another Location

Airport or City:

Trip Planner

Search our weather history database for the weather conditions in past years. The results will help you decide how hot, cold, wet, or windy it might be!

Date:

Astronomy

Jul. 22, 2014 Rise Set
Actual Time 4:55 AM EEST 7:32 PM EEST
Civil Twilight 4:23 AM EEST 8:03 PM EEST
Nautical Twilight 3:43 AM EEST 8:43 PM EEST
Astronomical Twilight 2:59 AM EEST 9:27 PM EEST
Moon 1:12 AM EEST (7/22) 3:50 PM EEST (7/22)
Length of Visible Light 15h 40m
Length of Day
14h 37m
Waning Crescent, 19% of the Moon is Illuminated
Jul 22
Waning Crescent
Jul 27
New
Aug 4
First Quarter
Aug 10
Full
Aug 17
Last Quarter

Hourly Weather History & Observations

Time (EEST) Temp. Dew Point Humidity Pressure Visibility Wind Dir Wind Speed Gust Speed Precip Events Conditions
12:00 AM 56 °F 56 °F 98%  in 6 mi ENE 3.5 mph - -   Partly Cloudy
12:50 AM 57.2 °F 55.4 °F 94% 30.01 in 6.2 mi SE 2.3 mph - N/A   Mostly Cloudy
1:50 AM 57.2 °F 55.4 °F 94% 30.01 in 6.2 mi NW 4.6 mph - N/A   Mostly Cloudy
2:50 AM 57.2 °F 55.4 °F 94% 30.01 in 6.2 mi Calm Calm - N/A   Mostly Cloudy
3:00 AM 57 °F 56 °F 96%  in 6 mi Calm Calm - -   Partly Cloudy
3:13 AM 57.2 °F 57.2 °F 100% 30.01 in 6.2 mi Calm Calm - N/A Rain Light Rain Showers
3:50 AM 55.4 °F 53.6 °F 94% 30.04 in 6.2 mi ENE 5.8 mph - N/A   Mostly Cloudy
4:50 AM 55.4 °F 55.4 °F 100% 30.04 in 6.2 mi East 4.6 mph - N/A   Mostly Cloudy
5:50 AM 55.4 °F 53.6 °F 94% 30.04 in 6.2 mi Variable 2.3 mph - N/A   Mostly Cloudy
6:00 AM 56 °F 54 °F 89%  in 6 mi East 1.2 mph - -   Partly Cloudy
6:50 AM 59.0 °F 50.0 °F 72% 30.04 in 6.2 mi East 4.6 mph - N/A   Scattered Clouds
7:50 AM 62.6 °F 48.2 °F 59% 30.04 in 6.2 mi NE 8.1 mph - N/A   Scattered Clouds
8:50 AM 66.2 °F 50.0 °F 56% 30.04 in 6.2 mi NE 5.8 mph - N/A   Scattered Clouds
9:00 AM 65 °F 49 °F 46%  in 6 mi NE 5.8 mph - -   Partly Cloudy
9:50 AM 64.4 °F 48.2 °F 56% 30.04 in 6.2 mi ENE 5.8 mph - N/A   Mostly Cloudy
10:50 AM 66.2 °F 48.2 °F 52% 30.04 in 6.2 mi NE 5.8 mph - N/A   Mostly Cloudy
11:50 AM 69.8 °F 50.0 °F 49% 30.04 in 6.2 mi ENE 5.8 mph - N/A   Scattered Clouds
12:00 PM 71 °F 48 °F 33%  in 6 mi ENE 5.8 mph - -   Partly Cloudy
12:50 PM 73.4 °F 48.2 °F 41% 30.04 in 6.2 mi NE 8.1 mph - N/A   Scattered Clouds
1:50 PM 73.4 °F 48.2 °F 41% 30.04 in 6.2 mi Variable 6.9 mph - N/A   Scattered Clouds
2:50 PM 73.4 °F 46.4 °F 38% 30.04 in 6.2 mi NNE 9.2 mph - N/A   Scattered Clouds
3:00 PM 73 °F 45 °F 26%  in 6 mi NNE 9.2 mph - -   Partly Cloudy
3:50 PM 75.2 °F 46.4 °F 36% 30.04 in 6.2 mi North 9.2 mph - N/A   Scattered Clouds
4:50 PM 73.4 °F 46.4 °F 38% 30.04 in 6.2 mi NE 13.8 mph - N/A   Scattered Clouds
5:50 PM 71.6 °F 48.2 °F 43% 30.04 in 6.2 mi NE 15.0 mph - N/A   Scattered Clouds
6:00 PM 72 °F 47 °F 29%  in 6 mi NE 15.0 mph - -   Partly Cloudy
6:50 PM 68.0 °F 48.2 °F 49% 30.06 in 6.2 mi NE 12.7 mph - N/A   Scattered Clouds
8:50 PM 59.0 °F 50.0 °F 72% 30.09 in 6.2 mi East 9.2 mph - N/A   Partly Cloudy
9:00 PM 59 °F 49 °F 62%  in 6 mi East 9.2 mph - -   Scattered Clouds
9:50 PM 59.0 °F 50.0 °F 72% 30.12 in 6.2 mi East 9.2 mph - N/A   Partly Cloudy
10:50 PM 55.4 °F 48.2 °F 77% 30.12 in 6.2 mi East 8.1 mph - N/A   Partly Cloudy
11:50 PM 53.6 °F 48.2 °F 82% 30.12 in - East 8.1 mph - N/A   Clear